Regional Weather Roundup
Issued by NWS Albany, NY

Home | Current Version | Previous Version | Text Only | Print | Product List | Glossary On
Versions: 1 2 3 4 5 6 7 8 9 10 11 12 13 14 15 16 17 18 19 20 21 22 23 24 25 26 27 28 29 30 31 32 33 34 35 36 37 38 39 40 41 42 43 44 45 46 47 48 49 50
000
ASUS41 KALY 200410
RWRALY

NEW YORK STATE HOURLY WEATHER ROUNDUP
NATIONAL WEATHER SERVICE ALBANY NY
1100 PM EST SUN NOV 19 2017

NOTE: "FAIR" INDICATES FEW OR NO CLOUDS BELOW 12,000 FEET WITH NO
SIGNIFICANT WEATHER AND/OR NO OBSTRUCTIONS TO VISIBILITY.

NYZ032-033-038>043-046>054-057>066-NYZ062>081-082-084-200500-
EAST


CITY           SKY/WX    TMP DP  RH WIND       PRES   REMARKS
ALBANY         CLOUDY    34  24  67 W7        29.71R WCI  28
GLENS FALLS    MOCLDY    34  21  59 W6        29.67R WCI  29
POUGHKEEPSIE   PTCLDY    37  28  70 SW8       29.73R WCI  31
MONTGOMERY     PTCLDY    37  27  67 W9        29.74R WCI  30
WHITE PLAINS   PTCLDY    41  27  56 W9        29.74R
ISLIP          PTCLDY    42  28  57 W8        29.75R
NEW YORK CITY  LGT RAIN  40  33  76 W13       29.78R WCI  32
CENTRAL PARK   CLOUDY    38  33  82 VRB5      29.80R WCI  34
$$

NYZ005>009-017-018-044>046-055-056-200500-
CENTRAL


CITY           SKY/WX    TMP DP  RH WIND       PRES   REMARKS
FULTON         FLURRIES  34  24  67 W18G29    29.76R WCI  23
SYRACUSE       FLURRIES  30  25  81 W21G29    29.77R WCI  17
ROME           CLOUDY    30  29  96 NW7       29.74S WCI  23
ELMIRA         FLURRIES  34  23  64 NW6       29.81R WCI  29
BINGHAMTON     CLOUDY    29  21  72 NW10      29.74R WCI  20
MONTICELLO     FLURRIES  30  26  85 W9        29.73R WCI  22
$$

NYZ026>034-041>043-087-200500-
NORTH


CITY           SKY/WX    TMP DP  RH WIND       PRES   REMARKS
WATERTOWN      CLOUDY    31  21  66 W18G28    29.75R WCI  19
FORT DRUM      NOT AVBL
OGDENSBURG     CLOUDY    29  24  81 W7        29.71R WCI  22
MASSENA        CLOUDY    28  22  78 W13       29.71R WCI  17
SARANAC LAKE   LGT SNOW  23  21  92 W6        29.59R FOG     WCI  16
PLATTSBURGH    CLOUDY    30  18  60 VRB5      29.63R WCI  25
$$

NYZ001>004-010>016-019>021-085-200500-
WEST


CITY           SKY/WX    TMP DP  RH WIND       PRES   REMARKS
NIAGARA FALLS  FLURRIES  33  25  72 W15       29.85S WCI  23
BUFFALO        FLURRIES  31  26  82 W16       29.85R WCI  20
DUNKIRK        CLOUDY    35  19  52 W20G30    29.89R WCI  24
JAMESTOWN      LGT SNOW  27  25  93 NW10      29.85S FOG     WCI  17
WELLSVILLE     LGT SNOW  29  24  82 NW13      29.80R WCI  19
ROCHESTER      MOCLDY    31  22  69 W13       29.82R WCI  21
PENN YAN       MOCLDY    31  20  63 NW12G23   29.81R WCI  22
$$

             KEY
       WCI = WIND CHILL INDEX
       VSB = VISIBILITY
       HX  = HEAT INDEX
$$



USA.gov is the U.S. government's official web portal to all federal, state and local government web resources and services.